Location: Camps Bay
(33.9517°S, 18.3844°E)
Time: 04:16:51
(UTC+00:00)

COSMOS 2455 - Pass Details

Date: 18 January 2020
Orbit: 902 x 907 km, 67.1° (Epoch: 26 February)

Event Time Altitude Azimuth Distance (km) Brightness Sun altitude
Rises 02:19:54 0° 208° (SSW) 3,554 6.1 -17.0°
Reaches altitude 10° 02:22:26 10° 208° (SSW) 2,606 5.4 -16.6°
Maximum altitude 02:28:28 79° 293° (WNW) 929 2.8 -15.7°
Drops below altitude 10° 02:34:28 10° 19° (NNE) 2,577 5.0 -14.7°
Sets 02:36:57 0° 20° (NNE) 3,511 5.7 -14.3°
